Hourly Data Report for October 03, 2016

All times are specified in Local Standard Time (LST). Add 1 hour to adjust for Daylight Saving Time where and when it is observed.

RESOLUTE BAY A
NUNAVUT

74°43'01.000" N
94°58'10.000" W
67.70 m
2403498
71924
YRB

Download Data

Hourly Data (October 2016)
Hourly Data Report for October 3, 2016
Temp Definition
°C
Dew Point Temp Definition
°C
Rel Hum Definition
%
Wind Dir Definition
10's deg

Wind Spd Definition
km/h
Visibility Definition
km
Stn Press Definition
kPa
Hmdx Definition


Wind Chill Definition


Weather Definition


TIME
00:00 Legend Double Dagger -5.2 -7.2 86 36 36 24.1 99.50   -14 Cloudy
01:00 Legend Double Dagger -6.3 -8.1 87 36 37 24.1 99.56   -16 LegendNANA
02:00 Legend Double Dagger -6.6 -8.6 86 1 48 24.1 99.60   -17 LegendNANA
03:00 Legend Double Dagger -7.0 -9.1 85 1 40 24.1 99.63   -17 Mainly Clear
04:00 Legend Double Dagger -7.7 -9.8 85 1 34 24.1 99.65   -17 LegendNANA
05:00 Legend Double Dagger -7.3 -8.8 89 35 39 24.1 99.66   -17 LegendNANA
06:00 Legend Double Dagger -8.1 -9.8 88 35 32 24.1 99.65   -17 Mostly Cloudy
07:00 Legend Double Dagger -8.7 -10.3 88 33 23 24.1 99.67   -17 LegendNANA
08:00 Legend Double Dagger -8.5 -10.0 89 33 23 6.4 99.65   -17 Freezing Drizzle,Fog
09:00 Legend Double Dagger -8.3 -9.8 89 33 28 24.1 99.63   -17 Freezing Drizzle
10:00 Legend Double Dagger -7.8 -9.0 91 33 24 17.7 99.61   -16 Blowing Snow
11:00 Legend Double Dagger -7.0 -8.8 87 35 29 24.1 99.59   -15 Blowing Snow
12:00 Legend Double Dagger -6.9 -8.7 87 34 20 24.1 99.59   -14 Blowing Snow
13:00 Legend Double Dagger -7.2 -9.3 85 33 12 24.1 99.59   -13 LegendNANA
14:00 Legend Double Dagger -7.2 -9.3 85 36 19 12.9 99.58   -14 Freezing Drizzle
15:00 Legend Double Dagger -7.9 -10.0 85 1 26 24.1 99.56   -16 Mostly Cloudy
16:00 Legend Double Dagger -7.7 -9.5 87 35 20 24.1 99.57   -15 LegendNANA
17:00 Legend Double Dagger -7.9 -10.3 83 36 23 24.1 99.57   -16 LegendNANA
18:00 Legend Double Dagger -8.0 -9.9 86 36 25 24.1 99.57   -16 Cloudy
19:00 Legend Double Dagger -8.1 -10.5 83 36 21 24.1 99.57   -16 LegendNANA
20:00 Legend Double Dagger -7.9 -10.2 84 35 20 24.1 99.57   -15 LegendNANA
21:00 Legend Double Dagger -7.9 -10.3 83 1 22 24.1 99.59   -16 Cloudy
22:00 Legend Double Dagger -8.0 -10.4 83 36 19 24.1 99.60   -15 LegendNANA
23:00 Legend Double Dagger -8.0 -10.4 83 35 17 24.1 99.60   -15 LegendNANA

Notes on Data Quality.

Legend

  • E = Estimated
  • M = Missing
  • NA = Not Available
  • ‡ = Partner data that is not subject to review by the National Climate Archives
Date modified: